Location: Boursonne
(49.2024°N, 3.0468°E)
Time: 03:55:17
(UTC+00:00)

COSMOS 2428 - Pass Details

Date: 03 March 2021
Orbit: 845 x 858 km, 70.9° (Epoch: 17 April)

Event Time Altitude Azimuth Distance (km) Brightness Sun altitude
Rises 19:17:14 0° 177° (S) 3,391 5.7 -17.5°
Reaches altitude 10° 19:19:53 10° 168° (SSE) 2,461 4.9 -18.0°
Enters shadow 19:24:45 33° 108° (ESE) 1,385 3.3 -18.7°
Exits shadow 19:32:03 - 36° (NE) 3,240 5.5 -19.9°
Sets 19:32:33 0° 35° (NE) 3,423 5.7 -20.0°
